Location: La Ribierre
(45.8422°N, 2.0401°E)
Time: 02:51:19
(UTC+00:00)

Daily predictions for brighter satellites

Satellite Brightness Start Highest point End
(mag) Time Altitude Azimuth Time Altitude Azimuth Time Altitude Azimuth
ATLAS CENTAUR R/B 3.9 00:07:30 15° WSW 00:12:20 73° NNW 00:27:18 10° NE
Cosmos 1825 3.5 00:13:02 26° ESE 00:13:33 27° E 00:16:48 10° NNE
Cosmos 1812 Rocket 4.1 00:14:30 10° NNW 00:18:40 45° W 00:19:25 40° WSW
Cosmos 1408 2.8 00:19:18 55° ESE 00:19:34 57° E 00:23:12 10° NNE
Cosmos 990 Rocket 4.2 00:15:01 10° NNW 00:20:13 67° ENE 00:22:37 32° SE
SL-16 R/B 2.6 00:19:57 28° SW 00:22:52 57° WNW 00:28:28 10° NNE
Cosmos 405 Rocket 3.3 00:23:36 39° ESE 00:23:58 41° E 00:27:27 10° NNE
Cosmos 2058 4.1 00:24:22 27° ESE 00:25:22 30° E 00:28:58 10° NNE
USA 229 DEB 3.5 00:22:35 35° SSW 00:25:27 74° SE 00:32:16 10° NE
USA 229 3.5 00:22:43 35° SSW 00:25:34 73° ESE 00:32:22 10° NE
Cosmos 1656 Rocket 4.5 00:20:12 10° NNW 00:25:45 49° ENE 00:30:16 15° SE
Cosmos 2221 4.0 00:22:30 10° N 00:26:19 30° ENE 00:28:24 20° ESE
Cosmos 2237 Rocket 4.1 00:21:53 10° W 00:26:19 23° NW 00:30:47 10° N
X-37B 2.6 00:28:47 21° E 00:28:47 21° E 00:29:57 10° E
Cosmos 1898 Rocket 3.6 00:28:17 10° NNW 00:33:32 70° ENE 00:36:10 29° SE
Cosmos 1937 Rocket 4.2 00:28:34 10° NNW 00:33:48 52° ENE 00:37:18 20° SE
NOSS 8 (F) 4.3 00:33:59 68° NW 00:34:01 68° NW 00:36:58 10° NE
NOSS 3-1 (C) 3.5 00:31:10 27° WSW 00:34:14 67° NW 00:40:34 10° NE
Cosmos 2369 Rocket 2.2 00:30:12 10° NNW 00:35:58 86° ENE 00:38:58 30° SSE
Cosmos 1356 3.2 00:37:29 82° SW 00:37:35 85° W 00:41:00 10° N
CREW DRAGON DEMO-1 DEB 4.4 00:40:05 25° NE 00:40:05 25° NE 00:41:17 10° ENE
SJ 16-02 2.2 00:35:45 10° NW 00:39:39 32° W 00:40:01 32° WSW
GP-B 4.2 00:36:41 10° NNW 00:40:39 32° W 00:41:51 28° WSW
NOSS 2-3 (E) 4.0 00:42:31 32° WSW 00:44:16 58° NW 00:49:06 10° NNE
NOSS 3-1 (A) 3.2 00:42:41 35° SW 00:45:08 90° N 00:51:27 10° NE
USA 215 4.3 00:40:22 10° NE 00:46:31 46° NNW 00:52:40 10° W
Cosmos 1825 Rocket 4.0 00:45:41 39° SW 00:46:55 52° WNW 00:51:17 10° N
ATLAS 5 CENTAUR R/B 3.2 00:48:04 18° ESE 00:48:29 18° ESE 00:51:22 10° ENE
Cosmos 2263 4.2 00:43:54 10° NNW 00:49:37 82° ENE 00:53:06 24° SSE
CZ-4 R/B 3.9 00:47:15 10° NNE 00:51:55 69° ESE 00:53:33 40° S
Helios 1B rocket 4.4 00:49:22 10° NE 00:52:27 20° E 00:54:08 16° SE
USA 308 4.1 00:53:26 27° SE 00:53:26 27° SE 00:57:02 10° ENE
Cosmos 1633 4.4 00:53:22 19° ESE 00:54:27 22° E 00:57:12 10° NE
Cosmos 1932 4.4 00:48:37 10° NW 00:54:53 87° NE 01:00:03 16° SE
CZ-3B R/B 4.5 00:45:24 10° WNW 00:56:12 36° N 00:59:45 10° ENE
Meteor 2-2 Rocket 4.4 00:50:39 10° N 00:56:44 83° E 01:00:07 28° SSE
NOSS 8 (H) 4.3 01:00:24 58° W 01:00:40 62° NW 01:03:37 10° NNE
Helios 1A 2.9 01:00:06 43° SSE 01:01:26 88° WSW 01:05:40 10° NNW
Cosmos 1606 3.7 00:58:48 10° N 01:02:28 41° ENE 01:04:12 25° SE
Cosmos 468 Rocket 4.1 01:00:57 34° SW 01:03:08 67° WNW 01:08:22 10° NNE
SL-16 R/B 3.1 00:59:52 13° SE 01:05:17 57° ENE 01:11:19 10° N
Cosmos 372 Rocket 4.5 01:03:36 10° NNW 01:08:48 60° ENE 01:13:11 15° SE
USA 305 3.5 01:10:31 37° SSE 01:11:10 39° SE 01:15:09 10° ENE
Cosmos 858 Rocket 4.4 01:05:54 10° NNW 01:11:13 83° WSW 01:14:06 28° SSE
USA 290 3.7 01:11:15 25° ESE 01:11:43 26° ESE 01:14:28 10° NE
Cosmos 1953 Rocket 4.2 01:10:29 33° WSW 01:11:51 43° WNW 01:16:05 10° N
Lacrosse 4 Rocket 2.7 01:10:58 10° NNW 01:14:49 37° NE 01:18:36 10° ESE
Cosmos 1092 Rocket 4.4 01:11:05 23° SSE 01:14:53 56° E 01:20:53 10° NNE
Cosmos 2098 Rocket 3.4 01:15:09 32° S 01:17:44 87° E 01:22:14 10° N
Cosmos 1763 Rocket 3.9 01:15:44 28° SW 01:18:08 51° WNW 01:23:09 10° NNE
BREEZE-M R/B 3.1 01:18:12 34° SSE 01:18:43 36° SE 01:22:47 10° ENE
USA 267 4.0 01:19:19 27° SSW 01:20:51 30° SW 01:26:30 10° WNW
Cosmos 1437 Rocket 2.9 01:17:41 10° NNW 01:21:29 54° W 01:22:18 43° SW
Resurs 1-4 Rocket 2.4 01:16:12 10° NNE 01:21:29 62° ESE 01:24:23 27° S
Cosmos 1892 4.4 01:21:02 19° W 01:22:07 22° WNW 01:25:11 10° NNW
OE (NEXTSAT) 4.1 01:22:34 45° WSW 01:23:31 81° SSE 01:26:58 10° E
SL-4 R/B 3.6 01:21:42 10° WNW 01:25:08 32° N 01:28:22 10° ENE
Cosmos 1943 Rocket 3.6 01:24:51 10° WNW 01:28:37 19° W 01:29:32 18° WSW
NOSS 2-2 (D) 3.6 01:30:21 37° SSE 01:31:06 43° ESE 01:34:34 10° NE
Cosmos 1842 Rocket 3.7 01:27:19 10° NNW 01:31:35 58° W 01:33:14 34° SSW
NPP 3.9 01:27:18 10° NNE 01:32:40 62° ESE 01:35:57 24° S
ADEOS II 3.2 01:28:10 10° NNE 01:33:03 37° E 01:36:50 16° SSE
USA 306 3.0 01:32:05 37° SSW 01:33:30 57° SE 01:37:40 10° ENE
Lacrosse 5 rocket 4.1 01:31:41 10° NNW 01:34:18 19° NNE 01:36:56 10° ENE
Cosmos 921 Rocket 2.8 01:32:38 36° SSW 01:34:18 90° NW 01:38:31 10° NNE
Exosat Rocket 4.4 01:30:27 22° SW 01:34:26 49° WNW 01:39:32 10° NNE
Meteor 2-8 Rocket 4.5 01:28:58 10° NNW 01:35:05 69° W 01:38:53 24° S
FALCON 9 DEB 3.2 01:32:44 10° WNW 01:36:09 75° NNE 01:39:31 10° ESE
Cosmos 1943 3.5 01:33:25 25° SW 01:36:38 59° WNW 01:42:14 10° NNE
MOZ.5/SAFIR/RUBIN 5/SL-8 4.2 01:38:05 30° SSW 01:39:58 46° W 01:44:34 10° NNW
CZ-2D R/B 2.0 01:34:58 10° NNE 01:40:14 86° ESE 01:43:15 26° SSW
Cosmos 1603 4.3 01:41:52 22° SW 01:45:24 49° WNW 01:50:54 10° NNE
Cosmos 2151 3.2 01:44:56 25° S 01:47:16 65° E 01:51:27 10° NNE
IDEFIX/ARIANE 42P 4.2 01:42:54 10° NE 01:47:21 27° E 01:51:44 10° SSE
Cosmos 1825 3.8 01:47:48 19° W 01:49:01 22° WNW 01:52:00 10° NNW
Cosmos 1076 Rocket 3.6 01:49:45 30° SSW 01:51:43 63° W 01:55:57 10° N
AQUA 3.9 01:47:30 10° NNE 01:52:17 75° ESE 01:55:17 23° S
Cosmos 1437 2.5 01:52:41 10° NNW 01:55:26 52° W 01:55:51 46° SW
Cosmos 540 Rocket 4.2 01:55:00 21° WSW 01:58:02 41° WNW 02:02:54 10° N
Cosmos 1242 Rocket 3.4 01:55:52 10° NNW 01:59:08 32° W 02:00:05 28° SW
DELTA 2 R/B (1) 3.9 01:57:41 19° WSW 02:01:18 44° S 02:06:33 10° ESE
Cosmos 2058 4.4 02:00:33 18° WSW 02:02:17 23° WNW 02:05:36 10° NNW
X-37B 0.5 02:01:03 17° W 02:03:22 67° S 02:06:32 10° ESE
Cosmos 2221 3.8 02:00:13 10° NNW 02:03:45 25° W 02:05:13 21° WSW
BREEZE-M DEB (TANK) 2.5 02:03:19 10° WNW 02:05:48 42° N 02:08:04 10° E
Cosmos 841 Rocket 4.2 02:03:07 19° WSW 02:06:21 41° WNW 02:11:14 10° N
IRS-1D 4.0 02:02:01 10° NNE 02:07:05 56° E 02:11:14 14° S
NOSS 2-2 (E) 3.5 02:08:02 23° WSW 02:09:56 54° NW 02:13:42 10° NNE
Cosmos 1553 Rocket 4.2 02:04:19 10° N 02:10:40 77° E 02:16:51 10° SSE
Cosmos 2292 Rocket 2.9 02:09:52 23° S 02:11:32 61° E 02:14:29 10° NNE
FALCON 9 DEB 4.2 02:12:00 10° NW 02:15:01 43° NNE 02:18:02 10° E
GPS 2-04 Rocket1 4.2 02:15:42 19° S 02:15:46 19° S 02:18:33 10° SE
USA 307 2.9 02:14:11 19° WSW 02:17:11 78° NW 02:21:28 10° NE
Cosmos 1782 3.2 02:13:14 10° N 02:17:14 63° E 02:21:12 10° SSE
USA 281 3.7 02:11:23 10° SE 02:17:51 63° ENE 02:24:21 10° NNW
Cosmos 1271 Rocket 3.9 02:15:32 10° N 02:19:06 41° ENE 02:22:40 10° SSE
Cosmos 2369 Rocket 3.9 02:16:05 10° WNW 02:19:10 15° W 02:20:43 14° WSW
Cosmos 2026 Rocket 4.2 02:16:00 18° SSW 02:20:38 60° WNW 02:26:57 10° N
NOSS 2-2 (C) 3.5 02:21:26 20° WSW 02:23:37 51° NW 02:27:18 10° NNE
CZ-4C R/B 3.9 02:21:41 10° SSE 02:25:02 48° ENE 02:28:24 10° N
Aureole 3 Rocket 4.2 02:21:58 10° NNW 02:25:34 31° W 02:28:38 17° SW
ERBS 3.1 02:24:39 20° S 02:26:20 36° SE 02:29:21 10° ENE
Helios 1B rocket 3.3 02:24:01 10° N 02:27:49 37° WNW 02:30:26 17° SW
Cosmos 1633 4.0 02:27:25 17° WSW 02:29:06 23° WNW 02:31:59 10° NNW
Cosmos 1328 Rocket 4.0 02:26:54 10° N 02:31:14 62° E 02:35:33 10° SSE
FALCON 9 DEB 3.0 02:28:57 10° NW 02:32:02 73° NNE 02:35:06 10° ESE
SL-19 R/B 4.4 02:27:20 10° N 02:32:28 56° WNW 02:36:51 15° SW
ATLAS 5 CENTAUR R/B 2.0 02:29:34 16° WSW 02:32:34 50° NW 02:36:56 10° NNE
USA 308 3.2 02:29:31 14° WSW 02:33:10 64° NNW 02:37:24 10° NE
Cosmos 2298 Rocket 4.1 02:28:49 10° NNW 02:34:04 61° WSW 02:39:18 10° S
SeaSat 1 3.3 02:31:45 10° NE 02:36:30 45° ESE 02:41:12 10° S
FALCON 9 DEB 3.3 02:35:47 10° NW 02:38:54 66° NNE 02:42:00 10° ESE
ADEOS Rocket 3.5 02:33:30 10° S 02:40:41 57° W 02:47:15 10° NNW
Meteor 2-21 4.5 02:36:15 11° S 02:42:10 82° W 02:48:24 10° N
FALCON 9 DEB 2.9 02:39:12 10° WNW 02:42:18 83° NNE 02:45:24 10° ESE
Cosmos 1933 4.1 02:40:37 10° NNW 02:44:22 35° W 02:47:30 14° SSW
IRIDIUM 104 4.5 02:39:41 10° N 02:44:50 60° W 02:49:56 10° SSW
Cosmos 2150 Rocket 4.2 02:40:33 10° NNW 02:45:35 51° WSW 02:50:40 10° S
USA 290 4.2 02:44:01 11° WSW 02:46:09 19° WNW 02:48:31 10° N
Cosmos 1833 Rocket 4.2 02:42:20 10° SSE 02:47:12 31° ESE 02:52:05 10° NE
SL-16 R/B 3.6 02:44:57 13° SW 02:49:13 26° W 02:54:19 10° NW
Meteor 1-28 Rocket 3.6 02:45:49 11° S 02:49:22 46° W 02:53:02 10° NNW
DELTA 2 DEB (DPAF) 4.4 02:46:03 10° S 02:50:20 47° W 02:54:39 10° NNW
Tianhe-1 3.5 02:49:59 10° S 02:51:02 11° SSE 02:52:07 10° SE
USA 305 3.7 02:46:56 10° W 02:51:04 48° NNW 02:55:12 10° NE
IRS-P3 4.5 02:46:25 10° NNE 02:51:44 66° ESE 02:57:01 10° S
Lacrosse 4 Rocket 2.6 02:50:03 10° WNW 02:53:16 23° WSW 02:56:19 11° SSW
Cosmos 1125 Rocket 3.7 02:48:23 10° NNW 02:53:30 54° WSW 02:58:37 10° S
Cosmos 1151 Rocket 3.1 02:50:41 10° NNW 02:54:52 57° W 02:59:01 10° S
Cosmos 2266 Rocket 4.0 02:50:14 10° S 02:56:21 84° E 03:02:26 10° N
Meteor 1-29 4.3 02:55:01 10° N 02:57:55 26° WNW 03:00:31 12° SW
CZ-4B R/B 4.1 02:54:17 10° NNE 02:59:30 59° ESE 03:04:37 10° S
ARIANE 5 R/B 2.9 02:55:41 10° NNE 03:00:39 62° ESE 03:05:37 10° S
Resurs 1-4 Rocket 3.7 02:56:56 10° NNW 03:00:51 21° WNW 03:04:46 10° WSW
OE (NEXTSAT) 4.3 02:57:34 10° W 03:01:02 87° S 03:04:28 10° E
CZ-4C R/B 2.4 02:56:36 10° SSW 03:01:17 57° ESE 03:06:57 10° NE
Cosmos 1515 Rocket 3.8 02:57:57 10° N 03:02:23 75° E 03:06:50 10° SSE
Cosmos 1766 Rocket 3.9 02:59:09 10° SSW 03:03:24 52° WNW 03:07:48 10° N
SL-4 R/B 2.4 03:01:36 10° WNW 03:05:09 55° NNE 03:08:32 10° E
Cosmos 1408 Rocket 3.7 03:01:33 10° S 03:06:01 86° E 03:10:30 10° N
COSMOS 2441 4.4 03:03:51 10° NNE 03:08:43 86° ESE 03:13:31 10° SSW
USA 238 DEB 4.3 03:02:07 10° NW 03:09:21 69° NE 03:16:54 10° SE
USA 238 4.4 03:02:14 10° NW 03:09:27 69° NE 03:17:01 10° SE
CENTAUR R/B 3.7 03:01:51 10° NW 03:09:54 70° NE 03:18:48 10° SE
Cosmos 2082 Rocket 4.2 03:05:49 10° SSE 03:10:09 24° ESE 03:14:31 10° NE
ADEOS II 3.1 03:08:00 10° N 03:12:39 33° WNW 03:17:17 10° SW
Cosmos 1862 3.3 03:08:56 10° SSW 03:12:57 77° W 03:17:02 10° N
USA 306 4.0 03:09:35 10° W 03:13:35 39° NNW 03:17:36 10° NE
Lacrosse 5 rocket 1.5 03:10:20 10° NW 03:13:56 67° NE 03:17:38 10° ESE
Okean 3 Rocket 4.2 03:10:11 10° SSW 03:14:19 41° WNW 03:18:30 10° N
CZ-2D R/B 4.1 03:16:38 10° NNW 03:19:35 15° WNW 03:22:31 10° W
ASTEX 1 3.9 03:19:28 10° SSW 03:24:09 41° W 03:28:49 10° NNW
Cosmos 1655 Rocket 4.3 03:18:18 10° SSW 03:24:22 54° WNW 03:30:31 10° N
IDEFIX/ARIANE 42P 3.2 03:22:08 10° N 03:27:05 43° WNW 03:31:58 10° SW
